Regional Weather Roundup
Issued by NWS

Home | Current Version | Previous Version | Graphics & Text | Print | Product List | Glossary On
Versions: 1 2 3 4 5 6 7 8 9 10 11 12 13 14 15 16 17 18 19 20 21 22 23 24 25 26 27 28 29 30 31 32 33 34 35 36 37 38 39 40 41 42 43 44 45 46 47 48 49 50
000
ASUS43 KMKX 051421
RWRWI

WISCONSIN REGIONAL WEATHER ROUNDUP
NATIONAL WEATHER SERVICE MILWAUKEE/SULLIVAN WI
800 AM CST FRI FEB 05 2016

NOTE: "FAIR" INDICATES FEW OR NO CLOUDS BELOW 12,000 FEET WITH NO
SIGNIFICANT WEATHER AND/OR OBSTRUCTIONS TO VISIBILITY.

WIZ001-002-006>008-014>016-023>028-051500-
NORTHWEST WISCONSIN

CITY           SKY/WX    TMP DP  RH WIND       PRES   REMARKS
SUPERIOR ARPT  CLOUDY     6   3  87 CALM      30.32R
ASHLAND        CLOUDY     5   2  87 SW5       30.32S WCI  -4
HAYWARD        CLOUDY    -2  -7  79 CALM      30.29S
SIREN          CLOUDY    -2  -6  84 CALM      30.31S
CUMBERLAND     CLOUDY    -6 -13  71 CALM      30.29R
RICE LAKE      CLOUDY    -3  -7  83 CALM      30.33S
CHETEK         CLOUDY    -3  -6  85 CALM      30.32S
LADYSMITH      CLOUDY    -1  -4  85 CALM      30.31F
EAU CLAIRE     PTCLDY     2  -2  83 CALM      30.34R
MENOMONIE      PTCLDY     2  -2  85 CALM      30.35R
NEW RICHMOND   CLOUDY    -3  -7  82 CALM      30.32S
OSCEOLA        PTCLDY    -2  -6  84 CALM      30.36R
$$

WIZ003>005-009-010-017-018-051500-
NORTH CENTRAL WISCONSIN

CITY           SKY/WX    TMP DP  RH WIND       PRES   REMARKS
MANITOWISH WTR LGT SNOW   3   0  88 W3        30.25R
ARBOR VITAE    CLOUDY    11   8  88 CALM      30.25S
WOODRUFF       CLOUDY    11   8  88 CALM      30.25S
RHINELANDER    CLOUDY     7   4  87 W5        30.25R WCI  -2
EAGLE RIVER    FLURRIES   5   1  82 CALM      30.24R
LAND O LAKES   FLURRIES   3   0  85 CALM      30.25R
PHILLIPS       CLOUDY    -2  -5  87 CALM      30.26F
TOMAHAWK       CLOUDY     1  -3  86 CALM      30.28R
MEDFORD        PTCLDY   N/A N/A N/A CALM      30.27S FOG
MERRILL        CLOUDY     2  -1  87 CALM      30.30R
$$

WIZ029-030-035-036-043>047-051500-
CENTRAL WISCONSIN

CITY           SKY/WX    TMP DP  RH WIND       PRES   REMARKS
WAUSAU         CLOUDY    12   9  87 CALM      30.28R
MOSINEE        CLEAR     12  10  92 CALM      30.30R
MARSHFIELD     PTCLDY    10   6  84 NW6       30.29R FOG     WCI   0
STEVENS POINT  CLOUDY     8   6  92 CALM      30.32R
WAUPACA        PTCLDY    14  10  86 CALM      30.34R
WAUTOMA        FOG        5   2  88 CALM      30.35R VSB<1/4
WISC RAPIDS    PTCLDY    11   6  81 SW3       30.34R HAZE
CAMP DOUGLAS   MOCLDY     1   1 100 W2        30.34R FOG
$$

WIZ011>013-019>022-031-037>040-048>050-051500-
NORTHEAST WISCONSIN

CITY           SKY/WX    TMP DP  RH WIND       PRES   REMARKS
ANTIGO         CLOUDY    -3  -6  87 CALM      30.27R
SHAWANO        CLOUDY    16  13  88 CALM      30.33R
OCONTO         CLEAR     16  15  94 W6        30.32R WCI   7
STURGEON BAY   CLOUDY    19  14  79 W5        30.33R WCI  13
GREEN BAY      CLOUDY    11   9  92 W8        30.33R FOG     WCI  -1
MANITOWOC      PTCLDY    18  16  92 W9        30.33R WCI   7
APPLETON       PTCLDY    12   9  85 W8        30.30R WCI   1
CLINTONVILLE   CLOUDY    10   9  92 W3        30.33R
OSHKOSH        CLOUDY    16  12  84 W6        30.33R WCI   7
$$

WIZ032>034-041-042-053>061-051500-
SOUTHWEST WISCONSIN

CITY           SKY/WX    TMP DP  RH WIND       PRES   REMARKS
LA CROSSE      CLOUDY     2  -2  83 CALM      30.38R
SPARTA         CLOUDY    -1  -4  87 CALM      30.37R
VIROQUA        CLOUDY    12  10  93 W6        30.33R WCI   2
BOSCOBEL       PTCLDY     9   6  88 CALM      30.38S FOG
PRAIRIE DU CHI PTCLDY    12   9  86 CALM      30.39R
PLATTEVILLE    CLOUDY    19  19  96 CALM      30.35R
$$

WIZ056-057-062-063-064-067-068-051500-
SOUTH CENTRAL WISCONSIN

CITY           SKY/WX    TMP DP  RH WIND       PRES   REMARKS
REEDSBURG      PTCLDY    13  12  95 CALM      30.35R FOG
BARABOO/DELLS  PTCLDY    12   9  89 CALM      30.34R FOG
LONE ROCK      PTCLDY     9   7  92 CALM      30.38R FOG
MINERAL POINT  PTCLDY    18  18 100 CALM      30.33S FOG
MADISON        CLOUDY    21  16  81 NW5       30.35R WCI  15
MIDDLETON      CLOUDY    19  15  86 CALM      30.35R
WATERTOWN      PTCLDY    20  19  95 W5        30.34R WCI  14
MONROE         CLOUDY    23  21  93 N5        30.33R WCI  17
JANESVILLE     CLOUDY    27  19  74 NW13      30.35R WCI  16
$$

WIZ051-052-058>065-066-070>072-051500-
SOUTHEAST WISCONSIN

CITY           SKY/WX    TMP DP  RH WIND       PRES   REMARKS
MILWAUKEE      MOCLDY    25  19  78 W7        30.34R WCI  17
WAUKESHA       PTCLDY    21  18  86 NW7       30.33R WCI  13
MILWAUKEE/TIMM CLEAR    N/A N/A N/A NW6       30.34R
RACINE         PTCLDY    26  19  74 NW6       30.36R WCI  19
BURLINGTON     MOCLDY    22  17  82 NW9       30.34R WCI  12
KENOSHA        CLOUDY    25  20  81 NW8       30.34R WCI  16
FOND DU LAC    PTCLDY    17  14  88 W9        30.33R WCI   6
SHEBOYGAN      CLEAR     19  15  84 W9        30.32R WCI   8
WEST BEND      CLEAR     21  18  86 CALM      30.32R
JUNEAU         CLOUDY    17  15  91 CALM      30.34R
$$

LSZ147-162-051500-
LAKE SUPERIOR

STATION/POSITION TIME  TEMP    WIND        PRES    WAVE
                       AIR SEA DIR/SP/G            HT/PER
                 (UTC) (F)     (DEG/KT/KT) (MB)    (FT/S)
DEVILS ISLAND    1400   19     230/  4/  5 1027.4F
PORT WING        1300   10     200/  5/  8   N/A
SAXON HARBOR     1300   10                 1026.1R
$$

LMZ867-665-643>646-051500-
LAKE MICHIGAN

STATION/POSITION TIME  TEMP    WIND        PRES    WAVE
                       AIR SEA DIR/SP/G            HT/PER
                 (UTC) (F)     (DEG/KT/KT) (MB)    (FT/S)
CHAMBERS ISLAND  1300   21     300/  5/  8 1025.7R
ALGOMA LAKESHORE 1340          330/  7/  9   N/A
KEWAUNEE LAKESHO 1300   20     300/  6/  9 1025.2R
SHEBOYGAN LAKESH 1400   21     280/ 10/ 12 1028.2R
PORT WASHINGTON  1300   24     320/  6/  8 1027.4
MILWAUKEE LAKESH 1410   25     320/  6/  7   N/A
KENOSHA   LAKESH 1400   26     310/ 10/ 14 1027.1R
$$

TC  - TEMPERATURE IN CELSIUS
VSB - VISIBILITY IN STATUTE MILES
WCI - WIND CHILL INDEX
HX  - HEAT INDEX




USA.gov is the U.S. government's official web portal to all federal, state and local government web resources and services.